Location: Flotzheim
(48.8375°N, 10.8136°E)
Time: 16:05:58
(UTC+00:00)

Cosmos 1627 Rocket - Pass Details

Date: 23 January 2021
Orbit: 951 x 1003 km, 82.9° (Epoch: 28 February)

Event Time Altitude Azimuth Distance (km) Brightness Sun altitude
Rises 17:54:54 0° 178° (S) 3,633 7.6 -18.6°
Reaches altitude 10° 17:57:23 10° 176° (S) 2,697 6.9 -19.0°
Maximum altitude 18:03:31 69° 95° (E) 1,040 4.4 -20.0°
Drops below altitude 10° 18:09:46 10° 13° (NNE) 2,752 6.7 -21.0°
Sets 18:12:19 0° 12° (NNE) 3,712 7.4 -21.5°
